Capitol Logistics 323


KAUS
Austin-Bergstrom International Airport
Austin, Texas, US
KMIA
Miami International Airport
Miami, Florida, US

Activity Log

Date Flight Route Aircraft Duration
06/10/2020 CPX323 ILEXY2 ZENZI IAH J86 LEV Q102 BAGGS SSCOT5 B763 2h 35m
12/18/2018 CPX323 LEXY2 ZENZI IAH J86 LEV Q102 BLVNS Y290 BAGGS SSCOT5 B752 2h 31m
11/30/2018 CPX363 ILEXY2 ZENZI IAH J86 LEV Q102 BAGGS SSCOT5 B752 2h 08m

Route Details

Aircraft Information
Primary: Boeing 767-300BDSF
Backup: Not Available
Route Data
Distance: 990nm
Sched. Duration: 2h 45m
Avg. Duration: 2h 25m (-20m)
Times Flown: 3
Recm'd Route: ILEXY2 ZENZI IAH J86 LEV Q102 BAGGS SSCOT5
Planned Altitude: 37,000ft
Origin Wx: KAUS 240753Z 11004KT 1/2SM R17L/P6000FT -DZ BR OVC003 17/16 A2993 RMK AO2 SFC VIS 3/4 SLP133 P0000 T01670161
Dest. Wx: KMIA 240753Z 00000KT 10SM FEW027 FEW250 19/18 A3007 RMK AO2 SLP182 T01940178 $
Notes:

Financial History
Total Freight: 185,111lbs
Average Load: 61,704lbs/flt
Fuel Used: 64,662lbs
Avg. Fuel Used: 21,554lbs/flt
Fuel Expense: $69,835
Avg. Fuel Expense: $23,278
Avg. Fuel Cost: $1.08/lbs
Total Gross Income: $245,071
Pilot Pay: $557
Total Expenses: $26,624
Total Revenue: $146,910
Average Revenue: $81,690.33